Location: Newark
(41.2758°N, 92.6808°W)
Time: 14:03:24
(UTC+00:00)

Envisat - Pass Details

Date: 27 September 2019
Orbit: 764 x 766 km, 98.1° (Epoch: 18 October)

Event Time Altitude Azimuth Distance (km) Brightness Sun altitude
Rises 01:40:21 0° 212° (SSW) 3,220 6.4 -19.2°
Reaches altitude 10° 01:43:41 10° 236° (SW) 2,299 6.0 -19.8°
Maximum altitude 01:46:30 15° 270° (W) 1,984 6.1 -20.4°
Drops below altitude 10° 01:49:20 10° 304° (NW) 2,308 6.5 -20.9°
Sets 01:52:43 0° 328° (NNW) 3,240 7.0 -21.5°
